Location: Heisler
(52.6701°N, 112.2239°W)
Time: 13:42:17
(UTC+00:00)

Envisat - Pass Details

Date: 08 December 2021
Orbit: 764 x 766 km, 98.2° (Epoch: 26 January)

Event Time Altitude Azimuth Distance (km) Brightness Sun altitude
Rises 11:22:22 0° 24° (NNE) 3,247 6.6 -35.7°
Reaches altitude 10° 11:25:15 10° 41° (NE) 2,315 6.0 -35.3°
Maximum altitude 11:29:03 21° 89° (E) 1,684 5.3 -34.7°
Drops below altitude 10° 11:32:50 10° 138° (SE) 2,301 5.8 -34.2°
Sets 11:35:41 0° 154° (SSE) 3,221 6.5 -33.7°
